Location: Lake Harris Campground
(43.9775°N, 74.1317°W)
Time: 06:45:34
(UTC-04:00)

ISS - All Passes

Search period start: 23 May 2017 00:00
Search period end: 02 June 2017 00:00
Orbit: 402 x 409 km, 51.6° (Epoch: 23 May)

Date Brightness Start Highest point End Pass type
(mag) Time Alt. Az. Time Alt. Az. Time Alt. Az.
23 May - 01:26:19 10° NW 01:28:54 21° N 01:31:30 10° NE visible
23 May - 03:03:09 10° NW 03:06:06 30° NNE 03:09:03 10° E visible
23 May - 04:39:32 10° WNW 04:42:47 60° SW 04:45:59 10° SE visible
23 May - 21:21:07 10° S 21:23:30 19° SE 21:25:54 10° E visible
23 May - 22:56:26 10° WSW 22:59:42 63° NNW 23:02:59 10° NE visible
24 May - 00:33:57 10° WNW 00:36:39 23° N 00:39:22 10° NE visible
24 May - 02:11:08 10° NW 02:13:54 24° NNE 02:16:39 10° ENE visible
24 May - 03:47:29 10° WNW 03:50:46 77° NNE 03:54:02 10° ESE visible
24 May - 05:24:57 10° W 05:26:52 15° SW 05:28:47 10° S daylight
24 May - 20:31:11 10° SE 20:31:41 10° SE 20:32:13 10° ESE daylight
24 May - 22:04:22 10° SW 22:07:39 76° SE 22:10:58 10° ENE visible
24 May - 23:41:32 10° WNW 23:44:25 27° NNW 23:47:18 10° NE visible
25 May - 01:19:01 10° NW 01:21:38 21° N 01:24:15 10° ENE visible
25 May - 02:55:29 10° NW 02:58:40 47° NNE 03:01:52 10° E visible
25 May - 04:32:13 10° WNW 04:35:02 26° SW 04:37:49 10° SSE visible
25 May - 21:12:33 10° SSW 21:15:40 41° SE 21:18:48 10° ENE visible
25 May - 22:49:08 10° W 22:52:12 35° NNW 22:55:17 10° NE visible
26 May - 00:26:45 10° NW 00:29:20 21° N 00:31:56 10° NE visible
26 May - 02:03:28 10° NW 02:06:30 33° NNE 02:09:31 10° E visible
26 May - 03:39:55 10° WNW 03:43:06 47° SW 03:46:15 10° SE visible
26 May - 20:21:04 10° S 20:23:44 23° SE 20:26:25 10° E daylight
26 May - 21:56:48 10° WSW 22:00:02 52° NNW 22:03:17 10° NE visible
26 May - 23:34:23 10° WNW 23:37:03 22° N 23:39:42 10° NE visible
27 May - 01:11:26 10° NW 01:14:16 26° NNE 01:17:06 10° ENE visible
27 May - 02:47:47 10° WNW 02:51:04 86° SW 02:54:20 10° SE visible
27 May - 04:25:50 10° WSW 04:27:05 12° SW 04:28:20 10° SSW visible
27 May - 19:30:15 10° SSE 19:31:52 13° SE 19:33:29 10° ESE daylight
27 May - 21:04:38 10° WSW 21:07:56 87° NNW 21:11:14 10° ENE visible
27 May - 22:41:56 10° WNW 22:44:45 25° NNW 22:47:34 10° NE visible
28 May - 00:19:18 10° NW 00:21:59 22° N 00:24:39 10° ENE visible
28 May - 01:55:43 10° NW 01:58:58 56° NNE 02:02:11 10° ESE visible
28 May - 03:32:40 10° W 03:35:14 21° SW 03:37:47 10° S night (unlit)
28 May - 20:12:39 10° SW 20:15:52 52° SE 20:19:05 10° ENE daylight
28 May - 21:49:29 10° W 21:52:29 32° NNW 21:55:30 10° NE visible
28 May - 23:27:04 10° NW 23:29:40 21° N 23:32:15 10° NE visible
29 May - 01:03:40 10° NW 01:06:47 37° NNE 01:09:52 10° E visible
29 May - 02:40:12 10° WNW 02:43:17 38° SW 02:46:20 10° SSE visible
29 May - 19:20:58 10° SSW 19:23:52 29° SE 19:26:46 10° ENE daylight
29 May - 20:57:05 10° W 21:00:16 45° NNW 21:03:28 10° NE visible
29 May - 22:34:42 10° WNW 22:37:19 21° N 22:39:56 10° NE visible
30 May - 00:11:37 10° NW 00:14:31 28° NNE 00:17:26 10° ENE visible
30 May - 01:47:59 10° WNW 01:51:15 70° SW 01:54:30 10° SE visible
30 May - 18:29:48 10° S 18:31:56 16° SE 18:34:05 10° E daylight
30 May - 20:04:48 10° WSW 20:08:05 72° NNW 20:11:23 10° NE daylight
30 May - 21:42:14 10° WNW 21:44:59 24° N 21:47:44 10° NE visible
30 May - 23:19:29 10° NW 23:22:12 23° N 23:24:56 10° ENE visible
31 May - 00:55:51 10° NW 00:59:08 68° NNE 01:02:24 10° ESE visible
31 May - 02:33:04 10° W 02:35:18 17° SW 02:37:31 10° S night (unlit)
31 May - 19:12:42 10° SW 19:15:58 66° SE 19:19:14 10° ENE daylight
31 May - 20:49:44 10° W 20:52:40 29° NNW 20:55:36 10° NE daylight
31 May - 22:27:15 10° NW 22:29:52 21° N 22:32:28 10° NE visible
01 Jun - 00:03:46 10° NW 00:06:56 43° NNE 00:10:05 10° E visible
01 Jun - 01:40:25 10° WNW 01:43:21 30° SW 01:46:16 10° SSE visible
01 Jun - 18:20:51 10° SSW 18:23:54 35° SE 18:26:58 10° ENE daylight
01 Jun - 19:57:16 10° W 20:00:23 39° NNW 20:03:31 10° NE daylight
01 Jun - 21:34:53 10° NW 21:37:30 21° N 21:40:05 10° NE visible
01 Jun - 23:11:41 10° NW 23:14:40 31° NNE 23:17:38 10° E visible
